Location: Newark
(25.4800°N, 85.7200°E)
Time: 20:44:37
(UTC+00:00)

Transit 4A - Pass Details

Date: 03 September 2019
Orbit: 867 x 978 km, 66.8° (Epoch: 18 October)

Event Time Altitude Azimuth Distance (km) Brightness Sun altitude
Rises 18:20:25 0° 350° (N) 3,577 11.4 -57.1°
Enters shadow 18:20:43 - 351° (N) 3,472 11.4 -57.1°
Reaches altitude 10° 18:23:21 10° 2° (N) 2,612 - -57.0°
Maximum altitude 18:28:29 28° 60° (ENE) 1,616 - -56.9°
Drops below altitude 10° 18:33:28 10° 118° (ESE) 2,543 - -56.8°
Sets 18:36:16 0° 130° (SE) 3,465 - -56.7°
